Location: Remedello Sotto
(45.2500°N, 10.3667°E)
Time: 04:51:18
(UTC+00:00)

Cosmos 2228 - Pass Details

Date: 03 February 2023
Orbit: 585 x 612 km, 82.5° (Epoch: 29 March)

Event Time Altitude Azimuth Distance (km) Brightness Sun altitude
Rises 16:51:38 0° 356° (N) 2,825 6.3 -4.7°
Reaches altitude 10° 16:53:54 10° 2° (N) 1,919 5.4 -5.1°
Maximum altitude 16:58:00 48° 78° (ENE) 773 3.2 -5.8°
Drops below altitude 10° 17:02:05 10° 153° (SSE) 1,905 5.5 -6.4°
Sets 17:04:19 0° 159° (SSE) 2,803 6.4 -6.8°
